Location: Cahas Mountain Overlook
(37.0833°N, 80.1000°W)
Time: 10:53:00
(UTC-04:00)

Vanguard 1 Rocket - Pass Details

Date: 16 February 2026
Orbit: 653 x 4214 km, 34.3° (Epoch: 15 March)

Event Time Altitude Azimuth Distance (km) Brightness Sun altitude
Rises 18:36:42 0° 282° (WNW) 6,179 13.1 -7.7°
Reaches altitude 10° 18:40:07 10° 279° (W) 5,540 12.8 -8.4°
Maximum altitude 18:58:44 64° 204° (SSW) 4,138 10.8 -12.0°
Drops below altitude 10° 19:24:27 10° 130° (SE) 7,254 11.5 -17.1°
Sets 19:29:48 0° 127° (SE) 8,075 11.8 -18.2°
